{"data":{"norad_id":67106,"intl_designator":"2025-299E","name":"STARLINK-36259","alt_names":[],"object_type":"PAYLOAD","status":"ACTIVE","operator":null,"country":"US","launch_date":"2025-12-15","launch_site_code":"AFETR","launch_vehicle":null,"mission":null,"orbit_class":"UNKNOWN","rcs_meters":null,"size_class":null,"mass_kg":null,"dimensions":null,"purposes":["comms"],"wikipedia_slug":null,"has_3d_model":false,"image_url":null,"decayed_at":null,"tle_current":{"epoch":"2026-05-25T03:37:16.768128Z","epoch_age_seconds":55299,"freshness":"FRESH","line1":"1 67106U 25299E   26145.15088852  .00016996  00000+0  62527-3 0  9997","line2":"2 67106  42.9996  96.8648 0000965 261.0047  99.0696 15.27603575 24817","mean_motion":15.27603575,"eccentricity":9.65e-5,"inclination_deg":42.9996,"raan_deg":96.8648,"arg_perigee_deg":261.0047,"mean_anomaly_deg":99.0696,"bstar":0.00062527,"rev_number":2481,"period_min":94.265293926142,"perigee_km":482.31640727022,"apogee_km":483.64060256267,"semimajor_km":6861.1155049164,"source":"CELESTRAK","updated_at":"2026-05-25T13:38:21.473186Z"}}}